Regional Weather Roundup
Issued by NWS

Home | Current Version | Previous Version | Graphics & Text | Print | Product List | Glossary On
Versions: 1 2 3 4 5 6 7 8 9 10 11 12 13 14 15 16 17 18 19 20 21 22 23 24 25 26 27 28 29 30 31 32 33 34 35 36 37 38 39 40 41 42 43 44 45 46 47 48 49 50
000
ASUS43 KTOP 240459
RWRKS

WEATHER ROUNDUP FOR KANSAS
NATIONAL WEATHER SERVICE GOODLAND KS
1100 PM CST MON JAN 23 2017

NOTE:  "FAIR" INDICATES FEW OR NO CLOUDS BELOW 12,000 FEET WITH NO
SIGNIFICANT WEATHER AND/OR OBSTRUCTIONS TO VISIBILITY.

KSZ001>006-013>018-027>032-041>047-240600-
NORTHWEST KANSAS

CITY           SKY/WX    TMP DP  RH WIND       PRES   REMARKS
GOODLAND       CLEAR     33  28  81 S13       29.47F WCI  24
HAYS           CLOUDY    37  32  82 E6        29.58F
HILL CITY      CLEAR     34  31  88 E8        29.57F
RUSSELL        CLOUDY    38  32  79 SE16      29.57F WCI  29
$$

KSZ061>065-074>080-084>089-240600-
SOUTHWEST KANSAS

CITY           SKY/WX    TMP DP  RH WIND       PRES   REMARKS
DODGE CITY     CLEAR     40  34  79 S9        29.54F
ELKHART          N/A     49  25  39 SW15        N/A
GARDEN CITY    CLOUDY    38  32  79 SE9       29.52S
GREAT BEND     CLEAR     38  33  82 E10       29.59F WCI  31
LIBERAL          N/A     43  27  52 S8        29.54F
$$

KSZ066>073-081>083-090>101-240600-
SOUTHEAST KANSAS

CITY           SKY/WX    TMP DP  RH WIND       PRES   REMARKS
CHANUTE        CLEAR     40  33  76 E9        29.77F
COFFEYVILLE    CLEAR     38  32  79 E3        29.77S
HUTCHINSON     CLEAR     40  32  73 E12       29.65F WCI  33
MEDICINE LODGE   N/A     41  32  70 SE12      29.60F
NEWTON         CLEAR     39  33  79 SE14      29.69F WCI  31
PARSONS        CLEAR     41  34  76 VRB3      29.78S
WICHITA INTL   CLEAR     43  33  68 SE17G24   29.66F
WICHITA JABRA  CLEAR     39  33  79 SE9       29.68F
WINFIELD       CLEAR     44  32  62 SE9       29.70F
$$

KSZ007>012-019>026-033>040-048>060-102>105-240600-
NORTHEAST KANSAS

CITY           SKY/WX    TMP DP  RH WIND       PRES   REMARKS
CONCORDIA      CLEAR     33  32  96 E10       29.69F FOG     WCI  25
EMPORIA        CLEAR     37  33  85 SE9       29.74F
LAWRENCE       CLEAR     28  28 100 E6        29.82S FOG
MANHATTAN      CLEAR     35  32  88 E6        29.75F FOG
OLATHE IND     CLEAR     32  30  92 E6        29.81F
OLATHE EXE     CLEAR     32  31  96 SE7       29.81F
SALINA         CLEAR     43  32  65 E15       29.69F
TOPEKA BILLARD CLEAR     32  29  88 E7        29.80F FOG
TOPEKA FORBES  CLEAR     34  31  88 E9        29.78F FOG
$$




USA.gov is the U.S. government's official web portal to all federal, state and local government web resources and services.